Location: Unspecified
(0.0000°N, 0.0000°E)
Time: 10:54:20
(UTC+01:00)

NOAA 12 - Visible Passes

Search period start: 08 December 2016 00:00
Search period end: 18 December 2016 00:00
Orbit: 795 x 816 km, 98.6° (Epoch: 07 December)

Date Brightness Start Highest point End Pass type
(mag) Time Alt. Az. Time Alt. Az. Time Alt. Az.
08 Dec 4.7 19:31:23 10° SE 19:36:07 33° ENE 19:40:49 10° NNE visible
08 Dec 6.9 21:12:33 10° SW 21:15:37 16° WSW 21:18:41 10° WNW visible
09 Dec 5.9 20:46:07 10° SSW 20:50:44 31° WSW 20:55:20 10° NW visible
10 Dec 4.6 20:20:36 10° S 20:25:51 62° WSW 20:31:03 10° NNW visible
11 Dec 4.0 19:55:41 10° SSE 20:00:57 67° ENE 20:06:10 10° N visible
12 Dec 4.7 19:31:19 10° SE 19:36:03 33° ENE 19:40:43 10° NNE visible
12 Dec 6.9 21:12:30 10° SW 21:15:33 16° WSW 21:18:34 10° WNW visible
13 Dec 5.9 20:46:03 10° SSW 20:50:40 31° WSW 20:55:15 10° NW visible
14 Dec 4.6 20:20:33 10° S 20:25:47 62° WSW 20:30:58 10° NNW visible
15 Dec 4.0 19:55:37 10° SSE 20:00:52 67° ENE 20:06:05 10° N visible
16 Dec 4.7 19:31:15 10° SE 19:35:58 33° ENE 19:40:38 10° NNE visible
16 Dec 6.9 21:12:26 10° SW 21:15:28 15° WSW 21:18:28 10° WNW visible
17 Dec 5.9 20:45:59 10° SSW 20:50:35 31° WSW 20:55:10 10° NW visible
